SCP
-0 -0 -0 -0 -0 -0 -0 -0 -0 -0 0 0 0 0 -0 -0 -0 -0 -0 -0 -0 -0 -0 -0 -0 -0 -0 -0 -0 -0 -0 -0 -0 -0 -0 -0 0 0 -0 0 -0 0 0
-0 -0 -0 -0 -0 -0 -0 -0 -0 -0 0 0 0 -0 -0 -0 -0 -0 -0 -0 0 -0 -0 -0 -0 -0 -0 -0 0 -0 -0 -0 0 -0 -0 -0 -0 0 -0 -0 -0 0 0
-0 -0 -0 -0 -0 -0 -0 -0 -0 -0 0 0 0 -0 -0 -0 -0 -0 -0 -0 0 0 0 0 0 0 0 0 0 -0 -0 -0 -0 -0 -0 0 0 -0 -0 0 0 0 0
-0 -0 -0 -0 -0 -0 -0 -0 -0 -0 -0 -0 -0 -0 -0 -0 -0 -0 -0 0 0 0 0 0 0 0 0 0 0 -0 -0 -0 0 -0 0 0 0 0 0 0 0 0 0
-0 -0 -0 -0 -0 -0 -0 -0 -0 -0 -0 -0 -0 -0 -0 -0 -0 -0 0 0 0 0 0 0 0 0 0 0 0 -0 -0 0 0 0 0 0 0 0 0 0 0 0 0
-0 -0 -0 -0 -0 -0 -0 -0 -0 -0 0 -0 -0 0 0 0 -0 -0 -0 -0 0 0 0 0 0 0 0 0 0 0 0 0 0 0 0 -0 0 0 0 0 0 0 0
-0 -0 -0 -0 -0 -0 -0 -0 -0 -0 0 0 0 0 0 0 -0 -0 -0 -0 -0 0 0 0 0 0 0 0 0 -0 0 0 0 0 0 -0 0 -0 0 0 0 0 0
-0 -0 -0 -0 -0 -0 -0 -0 -0 0 0 0 0 0 0 0 -0 -0 -0 -0 -0 -0 -0 -0 -0 0 0 0 0 -0 0 0 0 -0 -0 -0 -0 -0 -0 0 0 0 0
-0 -0 -0 -0 -0 -0 -0 -0 -0 0 0 0 0 0 0 0 0 -0 -0 -0 -0 -0 0 0 -0 -0 0 0 0 0 0 0 -0 0 0 0 -0 -0 -0 0 0 0 0
-0 -0 -0 -0 -0 -0 0 -0 0 0 0 0 0 0 0 0 0 0 -0 -0 0 0 0 0 0 0 0 0 0 0 0 -0 0 0 0 0 -0 -0 -0 0 0 0 0
-0 -0 -0 -0 -0 -0 0 0 0 0 0 0 0 0 0 -0 0 0 0 0 0 0 0 0 0 0 0 0 0 -0 -0 0 0 0 0 -0 -0 -0 -0 -0 -0 0 0
-0 -0 -0 -0 -0 -0 0 0 0 0 0 0 0 0 0 -0 0 0 0 0 0 0 0 0 0 0 0 0 0 0 0 0 0 0 0 -0 -0 -0 -0 -0 -0 0 0
-0 0 -0 -0 -0 0 0 0 0 0 0 0 0 0 0 -0 0 0 1 1 1 1 0 0 0 0 0 0 0 1 0 0 0 0 0 -0 -0 -0 -0 -0 -0 -0 0
-0 0 -0 -0 0 -0 -0 0 0 0 0 0 0 0 0 0 -0 1 0 1 1 0 0 0 0 0 0 0 0 0 0 0 0 0 0 0 -0 0 0 0 0 -0 0
0 0 0 0 1 0 1 1 1 0 0 0 0 0 0 0 0 0 0 -0 1 0 1 0 0 1 1 0 0 0 0 0 0 0 0 0 0 0 0 0 0 0 0
1 0 0 0 1 0 1 2 2 2 1 1 1 1 1 0 0 0 0 0 0 0 0 0 0 0 1 1 0 0 0 1 0 0 0 1 0 0 0 0 0 0 0
2 2 1 1 1 1 1 1 2 1 1 1 1 2 1 1 1 1 0 0 0 0 0 0 0 0 1 1 0 0 1 1 -0 -0 0 0 1 0 0 0 0 0 0
1 2 2 1 1 2 1 1 1 1 1 1 1 2 3 2 1 1 1 0 0 1 1 1 1 1 1 1 1 1 1 0 0 -0 0 0 1 1 1 0 1 0 0
5 2 2 2 2 2 1 2 1 1 2 1 2 2 3 2 1 1 1 1 1 1 1 1 1 1 1 1 1 0 0 0 0 0 0 0 -0 1 1 1 1 0 0
3 3 2 2 2 4 2 2 1 1 2 2 2 2 3 3 2 3 2 2 3 2 3 3 3 2 2 0 0 0 0 0 0 0 1 1 1 1 1 2 1 1 0
3 3 3 4 4 5 5 2 1 1 2 2 1 2 2 3 3 3 3 3 4 6 6 1 1 0 0 0 0 0 0 0 0 -0 0 0 -0 0 0 2 1 1 1
1 2 2 4 5 4 4 3 3 3 3 4 4 2 3 4 3 4 3 2 1 1 1 0 0 0 0 0 0 0 0 0 0 0 0 0 -0 0 0 0 0 0 0
1 1 1 2 4 5 4 5 5 4 5 5 3 3 4 1 2 2 2 3 2 2 1 0 0 0 0 0 0 0 0 0 0 0 0 0 -0 0 0 1 1 1 0
1 1 1 1 2 2 3 5 4 4 4 2 2 2 1 0 0 0 1 1 2 2 1 1 1 0 0 0 0 0 0 0 0 -0 0 0 0 0 -0 0 1 0 0
0 0 1 1 1 1 2 2 2 2 2 1 1 1 1 0 0 0 0 0 0 0 0 1 1 1 1 0 0 0 0 0 0 -0 -0 0 0 -0 -0 1 1 0 0
0 0 0 0 0 0 0 1 1 1 1 1 1 1 0 0 0 0 0 0 0 0 0 0 0 0 1 1 0 0 0 0 0 0 0 -0 0 0 0 0 1 1 0
Wind_Speed_500mb
28 33 32 34 34 33 28 24 23 25 27 29 29 30 31 33 33 34 35 36 37 39 39 38 38 39 40 39 39 41 44 45 48 49 46 40 37 37 36 34 16 24 29
36 35 35 34 33 31 29 23 22 24 26 27 28 30 32 33 35 35 35 36 37 37 38 38 37 38 38 37 39 41 43 46 47 46 46 44 37 33 29 24 24 32 32
38 38 36 34 34 32 28 24 23 23 24 24 26 28 30 31 32 33 33 33 34 34 34 34 34 35 34 35 37 37 41 46 45 42 36 30 31 28 29 29 31 34 32
43 38 36 35 33 31 28 25 23 22 22 22 23 25 27 28 29 30 30 30 30 29 29 29 29 30 30 33 34 38 44 40 35 30 29 8 25 23 25 29 30 31 32
40 38 35 33 32 30 28 25 23 22 21 20 20 22 24 25 25 26 26 27 26 26 25 25 26 27 26 27 28 32 36 36 36 37 30 6 23 22 21 22 26 27 27
40 37 36 33 31 28 26 23 21 20 19 18 18 19 20 21 21 21 21 21 21 20 19 19 20 20 19 18 20 23 26 27 26 25 10 12 20 21 20 21 21 20 19
40 34 36 33 30 28 25 23 20 19 17 16 15 16 17 16 16 15 15 14 13 13 13 13 13 10 9 9 9 12 16 24 21 18 12 7 21 21 18 17 14 14 15
40 26 34 33 30 27 24 22 20 18 16 15 14 13 13 12 11 11 10 8 8 6 6 5 4 4 3 5 5 7 10 14 12 17 8 15 17 20 15 12 11 11 11
28 26 35 33 31 28 24 22 20 19 17 15 13 11 11 9 7 6 5 3 2 2 0 2 3 3 4 6 8 7 3 2 14 13 8 14 15 18 12 11 9 8 7
30 19 35 34 30 28 27 24 21 20 18 16 15 14 12 10 9 7 6 5 5 5 4 4 7 8 5 5 7 7 6 4 6 9 15 17 22 17 14 10 9 7 5
34 24 28 28 31 26 27 25 23 21 19 18 17 15 13 10 7 9 9 9 9 10 9 7 4 7 7 1 5 7 7 9 14 6 24 18 13 20 17 14 13 8 5
30 30 29 30 22 25 18 15 17 20 19 18 18 17 16 8 9 10 20 17 15 16 13 10 4 3 11 15 18 13 11 20 20 32 22 19 22 18 19 18 16 13 8
36 34 34 36 29 30 36 18 15 16 16 17 18 18 17 16 14 23 29 23 22 22 17 19 12 15 12 17 29 22 19 18 24 27 30 16 22 19 21 18 18 18 13
38 32 34 36 34 34 37 20 5 16 13 11 14 20 18 25 25 29 26 27 26 29 19 17 15 26 16 13 29 19 16 17 23 22 28 21 20 24 23 22 18 20 18
32 31 29 38 45 45 33 24 19 18 27 16 22 23 21 24 25 26 30 30 29 23 24 21 22 28 29 31 38 33 19 21 32 22 25 27 26 24 23 24 25 22 20
19 30 28 30 38 35 50 33 32 33 27 30 26 28 30 27 29 31 32 36 35 32 28 29 30 28 19 27 32 37 27 43 29 26 27 28 29 39 33 34 26 24 22
24 15 25 28 35 32 45 44 34 29 35 28 31 29 36 35 36 37 37 28 29 26 27 32 37 39 40 39 36 36 44 52 35 41 38 32 37 34 25 27 20 19 24
13 28 21 26 33 34 30 32 38 36 30 26 29 31 39 45 39 41 42 37 29 28 31 31 33 37 39 40 39 42 45 57 32 38 46 32 32 27 25 28 23 21 23
18 13 26 26 25 33 27 30 26 27 29 28 29 32 37 39 35 33 36 27 25 33 32 34 37 39 43 38 42 47 40 58 14 36 43 45 33 27 39 32 22 20 25
10 13 12 17 32 21 25 23 28 26 29 30 31 32 34 33 29 33 35 27 35 38 29 29 34 39 37 47 51 53 37 57 47 32 36 38 37 29 28 37 29 23 23
23 21 22 21 19 33 27 23 19 26 33 27 29 27 30 33 27 30 34 24 35 33 42 43 45 43 41 51 71 61 44 50 63 82 40 44 35 36 23 32 33 30 26
25 25 24 23 25 22 19 24 25 22 27 38 40 37 40 31 29 31 28 37 35 40 42 46 45 46 51 54 56 46 40 61 60 85 47 42 39 37 32 26 35 24 25
21 14 12 19 18 20 21 21 23 21 17 20 21 29 34 32 33 33 26 27 32 32 39 46 46 46 52 52 51 43 21 20 80 81 52 18 43 29 23 16 20 15 16
22 16 13 14 15 16 13 6 16 16 15 15 16 14 13 19 19 24 24 27 27 30 31 32 33 34 39 46 47 42 41 55 55 76 70 33 47 37 33 24 24 29 9
24 22 25 24 19 14 9 6 10 12 13 10 4 9 17 18 20 23 24 28 34 36 42 40 33 36 39 46 41 37 40 42 48 62 72 42 31 25 26 23 32 21 15
26 24 25 24 24 20 17 13 10 11 13 12 16 17 20 22 21 25 16 20 22 23 27 29 34 38 38 38 36 31 33 43 46 55 53 44 43 45 50 20 18 26 19
Wind_Direction_500mb
143 139 135 137 136 132 126 117 103 95 85 81 77 81 85 89 94 97 98 96 96 96 97 97 97 95 92 89 85 85 83 79 74 70 64 62 65 69 80 84 48 62 72
143 141 138 138 136 131 125 116 106 98 93 88 83 85 90 94 97 100 101 101 99 98 96 94 93 90 88 87 83 83 83 76 68 62 57 51 56 67 74 73 68 63 65
152 142 139 138 137 135 131 124 114 105 100 95 92 92 95 96 95 97 100 99 97 97 96 95 94 92 91 88 84 84 82 75 70 69 62 24 46 57 68 67 65 67 61
144 145 141 139 138 136 134 128 121 116 111 105 98 96 98 97 96 96 97 99 98 99 98 97 94 93 91 88 83 84 85 80 72 72 83 356 28 44 54 65 60 65 66
144 145 141 140 138 138 138 136 132 127 119 111 106 103 103 102 100 99 101 103 103 102 101 100 98 97 94 87 84 87 91 88 81 70 90 350 23 38 48 59 61 61 66
140 147 143 143 141 140 139 136 134 132 129 122 118 112 107 106 106 107 108 109 108 106 105 104 101 97 93 87 84 87 97 91 90 92 15 10 23 34 41 51 58 63 70
154 147 147 146 145 145 144 143 142 141 139 136 130 121 115 112 114 115 113 113 111 107 106 106 106 100 91 80 76 85 107 101 98 103 318 352 15 21 28 44 55 64 68
171 160 154 151 150 149 149 149 151 151 153 152 146 136 131 131 133 129 126 129 127 123 116 116 116 110 89 78 51 50 119 132 103 113 263 299 321 355 13 24 41 52 58
168 184 163 160 158 156 156 156 162 164 168 168 163 158 155 157 164 156 153 167 176 166 309 320 321 317 335 359 3 1 29 203 160 151 321 269 324 334 344 6 18 31 45
161 167 167 167 165 165 165 167 171 175 179 182 184 181 185 185 194 206 219 230 259 277 288 304 332 356 6 73 64 33 341 300 202 234 242 266 299 328 319 332 336 341 7
164 152 163 168 172 171 177 177 180 186 191 195 199 201 203 210 204 251 247 258 271 274 276 286 355 52 37 115 19 6 4 286 225 289 223 236 286 317 308 302 297 312 322
170 164 169 172 179 163 189 177 201 202 206 210 213 212 215 184 247 320 282 273 280 270 263 267 324 32 353 332 316 295 321 337 315 257 280 229 298 323 303 299 280 292 297
167 178 178 178 178 170 197 227 263 222 223 224 222 229 211 166 209 247 251 272 284 274 259 264 306 291 328 336 324 291 300 303 293 279 292 280 298 308 311 296 283 277 282
161 174 176 173 178 172 209 212 238 207 246 265 270 235 223 202 204 231 243 269 284 303 294 298 312 299 275 283 284 269 277 287 325 316 307 274 288 293 310 288 283 270 270
153 165 178 185 194 186 174 190 203 195 216 231 237 257 253 215 216 232 233 239 260 265 284 277 268 272 255 282 288 274 260 268 278 279 280 290 298 289 298 294 273 267 262
132 164 182 198 216 210 192 179 208 195 207 213 220 242 254 235 222 232 243 235 235 234 248 262 272 278 291 283 297 305 293 269 276 271 267 284 287 282 277 301 260 262 267
180 150 184 196 231 229 207 194 190 218 213 213 229 226 245 252 223 226 237 239 257 262 261 263 266 273 281 282 289 292 286 286 253 267 258 256 269 277 268 290 284 273 268
184 201 187 194 222 238 219 215 217 217 213 239 225 233 239 251 254 231 241 239 239 257 259 264 269 271 278 280 291 290 284 284 257 283 274 254 265 276 282 289 284 264 260
172 202 193 191 207 236 226 210 231 215 240 225 232 234 246 256 261 250 241 245 260 259 257 258 258 264 275 277 280 283 280 297 282 264 272 274 238 259 278 275 272 271 283
156 187 192 215 203 216 237 239 218 238 229 230 233 236 238 247 248 244 257 248 243 243 247 262 253 245 256 275 272 267 287 317 297 267 256 262 273 261 270 261 257 274 271
175 185 191 201 213 208 207 232 234 236 240 241 238 240 237 245 238 256 252 245 258 253 239 241 256 262 263 271 278 276 269 301 272 310 245 244 244 252 259 267 259 263 294
193 201 202 197 208 221 215 226 238 246 239 224 226 218 205 211 216 221 228 240 247 253 265 265 267 271 273 271 273 282 288 275 293 289 267 271 219 236 233 248 265 255 290
98 95 158 191 190 199 220 218 225 233 199 205 216 215 223 241 241 235 239 245 253 261 282 281 278 275 275 274 274 279 288 292 300 288 287 259 252 221 243 239 225 263 250
100 84 109 134 162 201 199 182 228 220 229 237 240 235 262 278 252 247 252 260 269 284 291 300 296 288 286 284 284 284 284 286 288 271 287 288 248 249 224 237 242 236 283
116 110 107 105 105 111 175 135 103 121 134 152 209 282 285 303 304 305 302 296 296 298 288 289 291 293 291 292 296 304 297 268 264 268 265 270 298 254 245 214 223 251 223
120 115 112 107 101 96 94 94 85 103 111 77 54 57 29 34 358 345 358 353 344 334 322 311 293 284 285 289 297 303 291 279 280 288 298 302 315 283 311 262 226 207 237
Wind_Speed_850mb
28 33 32 34 34 33 28 24 23 25 27 29 29 30 31 33 33 34 35 36 37 39 39 38 38 39 40 39 39 41 44 45 48 49 46 40 37 37 36 34 16 24 29
36 35 35 34 33 31 29 23 22 24 26 27 28 30 32 33 35 35 35 36 37 37 38 38 37 38 38 37 39 41 43 46 47 46 46 44 37 33 29 24 24 32 32
38 38 36 34 34 32 28 24 23 23 24 24 26 28 30 31 32 33 33 33 34 34 34 34 34 35 34 35 37 37 41 46 45 42 36 30 31 28 29 29 31 34 32
43 38 36 35 33 31 28 25 23 22 22 22 23 25 27 28 29 30 30 30 30 29 29 29 29 30 30 33 34 38 44 40 35 30 29 8 25 23 25 29 30 31 32
40 38 35 33 32 30 28 25 23 22 21 20 20 22 24 25 25 26 26 27 26 26 25 25 26 27 26 27 28 32 36 36 36 37 30 6 23 22 21 22 26 27 27
40 37 36 33 31 28 26 23 21 20 19 18 18 19 20 21 21 21 21 21 21 20 19 19 20 20 19 18 20 23 26 27 26 25 10 12 20 21 20 21 21 20 19
40 34 36 33 30 28 25 23 20 19 17 16 15 16 17 16 16 15 15 14 13 13 13 13 13 10 9 9 9 12 16 24 21 18 12 7 21 21 18 17 14 14 15
40 26 34 33 30 27 24 22 20 18 16 15 14 13 13 12 11 11 10 8 8 6 6 5 4 4 3 5 5 7 10 14 12 17 8 15 17 20 15 12 11 11 11
28 26 35 33 31 28 24 22 20 19 17 15 13 11 11 9 7 6 5 3 2 2 0 2 3 3 4 6 8 7 3 2 14 13 8 14 15 18 12 11 9 8 7
30 19 35 34 30 28 27 24 21 20 18 16 15 14 12 10 9 7 6 5 5 5 4 4 7 8 5 5 7 7 6 4 6 9 15 17 22 17 14 10 9 7 5
34 24 28 28 31 26 27 25 23 21 19 18 17 15 13 10 7 9 9 9 9 10 9 7 4 7 7 1 5 7 7 9 14 6 24 18 13 20 17 14 13 8 5
30 30 29 30 22 25 18 15 17 20 19 18 18 17 16 8 9 10 20 17 15 16 13 10 4 3 11 15 18 13 11 20 20 32 22 19 22 18 19 18 16 13 8
36 34 34 36 29 30 36 18 15 16 16 17 18 18 17 16 14 23 29 23 22 22 17 19 12 15 12 17 29 22 19 18 24 27 30 16 22 19 21 18 18 18 13
38 32 34 36 34 34 37 20 5 16 13 11 14 20 18 25 25 29 26 27 26 29 19 17 15 26 16 13 29 19 16 17 23 22 28 21 20 24 23 22 18 20 18
32 31 29 38 45 45 33 24 19 18 27 16 22 23 21 24 25 26 30 30 29 23 24 21 22 28 29 31 38 33 19 21 32 22 25 27 26 24 23 24 25 22 20
19 30 28 30 38 35 50 33 32 33 27 30 26 28 30 27 29 31 32 36 35 32 28 29 30 28 19 27 32 37 27 43 29 26 27 28 29 39 33 34 26 24 22
24 15 25 28 35 32 45 44 34 29 35 28 31 29 36 35 36 37 37 28 29 26 27 32 37 39 40 39 36 36 44 52 35 41 38 32 37 34 25 27 20 19 24
13 28 21 26 33 34 30 32 38 36 30 26 29 31 39 45 39 41 42 37 29 28 31 31 33 37 39 40 39 42 45 57 32 38 46 32 32 27 25 28 23 21 23
18 13 26 26 25 33 27 30 26 27 29 28 29 32 37 39 35 33 36 27 25 33 32 34 37 39 43 38 42 47 40 58 14 36 43 45 33 27 39 32 22 20 25
10 13 12 17 32 21 25 23 28 26 29 30 31 32 34 33 29 33 35 27 35 38 29 29 34 39 37 47 51 53 37 57 47 32 36 38 37 29 28 37 29 23 23
23 21 22 21 19 33 27 23 19 26 33 27 29 27 30 33 27 30 34 24 35 33 42 43 45 43 41 51 71 61 44 50 63 82 40 44 35 36 23 32 33 30 26
25 25 24 23 25 22 19 24 25 22 27 38 40 37 40 31 29 31 28 37 35 40 42 46 45 46 51 54 56 46 40 61 60 85 47 42 39 37 32 26 35 24 25
21 14 12 19 18 20 21 21 23 21 17 20 21 29 34 32 33 33 26 27 32 32 39 46 46 46 52 52 51 43 21 20 80 81 52 18 43 29 23 16 20 15 16
22 16 13 14 15 16 13 6 16 16 15 15 16 14 13 19 19 24 24 27 27 30 31 32 33 34 39 46 47 42 41 55 55 76 70 33 47 37 33 24 24 29 9
24 22 25 24 19 14 9 6 10 12 13 10 4 9 17 18 20 23 24 28 34 36 42 40 33 36 39 46 41 37 40 42 48 62 72 42 31 25 26 23 32 21 15
26 24 25 24 24 20 17 13 10 11 13 12 16 17 20 22 21 25 16 20 22 23 27 29 34 38 38 38 36 31 33 43 46 55 53 44 43 45 50 20 18 26 19
Wind_Direction_850mb
143 139 135 137 136 132 126 117 103 95 85 81 77 81 85 89 94 97 98 96 96 96 97 97 97 95 92 89 85 85 83 79 74 70 64 62 65 69 80 84 48 62 72
143 141 138 138 136 131 125 116 106 98 93 88 83 85 90 94 97 100 101 101 99 98 96 94 93 90 88 87 83 83 83 76 68 62 57 51 56 67 74 73 68 63 65
152 142 139 138 137 135 131 124 114 105 100 95 92 92 95 96 95 97 100 99 97 97 96 95 94 92 91 88 84 84 82 75 70 69 62 24 46 57 68 67 65 67 61
144 145 141 139 138 136 134 128 121 116 111 105 98 96 98 97 96 96 97 99 98 99 98 97 94 93 91 88 83 84 85 80 72 72 83 356 28 44 54 65 60 65 66
144 145 141 140 138 138 138 136 132 127 119 111 106 103 103 102 100 99 101 103 103 102 101 100 98 97 94 87 84 87 91 88 81 70 90 350 23 38 48 59 61 61 66
140 147 143 143 141 140 139 136 134 132 129 122 118 112 107 106 106 107 108 109 108 106 105 104 101 97 93 87 84 87 97 91 90 92 15 10 23 34 41 51 58 63 70
154 147 147 146 145 145 144 143 142 141 139 136 130 121 115 112 114 115 113 113 111 107 106 106 106 100 91 80 76 85 107 101 98 103 318 352 15 21 28 44 55 64 68
171 160 154 151 150 149 149 149 151 151 153 152 146 136 131 131 133 129 126 129 127 123 116 116 116 110 89 78 51 50 119 132 103 113 263 299 321 355 13 24 41 52 58
168 184 163 160 158 156 156 156 162 164 168 168 163 158 155 157 164 156 153 167 176 166 309 320 321 317 335 359 3 1 29 203 160 151 321 269 324 334 344 6 18 31 45
161 167 167 167 165 165 165 167 171 175 179 182 184 181 185 185 194 206 219 230 259 277 288 304 332 356 6 73 64 33 341 300 202 234 242 266 299 328 319 332 336 341 7
164 152 163 168 172 171 177 177 180 186 191 195 199 201 203 210 204 251 247 258 271 274 276 286 355 52 37 115 19 6 4 286 225 289 223 236 286 317 308 302 297 312 322
170 164 169 172 179 163 189 177 201 202 206 210 213 212 215 184 247 320 282 273 280 270 263 267 324 32 353 332 316 295 321 337 315 257 280 229 298 323 303 299 280 292 297
167 178 178 178 178 170 197 227 263 222 223 224 222 229 211 166 209 247 251 272 284 274 259 264 306 291 328 336 324 291 300 303 293 279 292 280 298 308 311 296 283 277 282
161 174 176 173 178 172 209 212 238 207 246 265 270 235 223 202 204 231 243 269 284 303 294 298 312 299 275 283 284 269 277 287 325 316 307 274 288 293 310 288 283 270 270
153 165 178 185 194 186 174 190 203 195 216 231 237 257 253 215 216 232 233 239 260 265 284 277 268 272 255 282 288 274 260 268 278 279 280 290 298 289 298 294 273 267 262
132 164 182 198 216 210 192 179 208 195 207 213 220 242 254 235 222 232 243 235 235 234 248 262 272 278 291 283 297 305 293 269 276 271 267 284 287 282 277 301 260 262 267
180 150 184 196 231 229 207 194 190 218 213 213 229 226 245 252 223 226 237 239 257 262 261 263 266 273 281 282 289 292 286 286 253 267 258 256 269 277 268 290 284 273 268
184 201 187 194 222 238 219 215 217 217 213 239 225 233 239 251 254 231 241 239 239 257 259 264 269 271 278 280 291 290 284 284 257 283 274 254 265 276 282 289 284 264 260
172 202 193 191 207 236 226 210 231 215 240 225 232 234 246 256 261 250 241 245 260 259 257 258 258 264 275 277 280 283 280 297 282 264 272 274 238 259 278 275 272 271 283
156 187 192 215 203 216 237 239 218 238 229 230 233 236 238 247 248 244 257 248 243 243 247 262 253 245 256 275 272 267 287 317 297 267 256 262 273 261 270 261 257 274 271
175 185 191 201 213 208 207 232 234 236 240 241 238 240 237 245 238 256 252 245 258 253 239 241 256 262 263 271 278 276 269 301 272 310 245 244 244 252 259 267 259 263 294
193 201 202 197 208 221 215 226 238 246 239 224 226 218 205 211 216 221 228 240 247 253 265 265 267 271 273 271 273 282 288 275 293 289 267 271 219 236 233 248 265 255 290
98 95 158 191 190 199 220 218 225 233 199 205 216 215 223 241 241 235 239 245 253 261 282 281 278 275 275 274 274 279 288 292 300 288 287 259 252 221 243 239 225 263 250
100 84 109 134 162 201 199 182 228 220 229 237 240 235 262 278 252 247 252 260 269 284 291 300 296 288 286 284 284 284 284 286 288 271 287 288 248 249 224 237 242 236 283
116 110 107 105 105 111 175 135 103 121 134 152 209 282 285 303 304 305 302 296 296 298 288 289 291 293 291 292 296 304 297 268 264 268 265 270 298 254 245 214 223 251 223
120 115 112 107 101 96 94 94 85 103 111 77 54 57 29 34 358 345 358 353 344 334 322 311 293 284 285 289 297 303 291 279 280 288 298 302 315 283 311 262 226 207 237